Location: Astronomy Club of Akron Observatory
(40.9700°N, 81.5606°W)
Time: 05:41:12
(UTC-05:00)

Daily predictions for brighter satellites

Satellite Brightness Start Highest point End
(mag) Time Altitude Azimuth Time Altitude Azimuth Time Altitude Azimuth
Cosmos 2237 Rocket 4.3 04:07:43 22° E 04:07:43 22° E 04:10:23 10° ESE
Cosmos 2297 Rocket 4.2 04:17:59 22° ESE 04:18:55 23° E 04:23:17 10° NE
Cosmos 2227 Rocket 3.6 04:32:14 34° ENE 04:32:14 34° ENE 04:36:05 10° NE
CZ-3 R/B 4.4 04:39:31 38° SW 04:40:30 38° SW 04:51:11 10° SSE
Cosmos 1980 4.3 04:53:53 51° ESE 04:53:53 51° ESE 04:58:14 10° SSE
Cosmos 2082 4.1 04:58:06 60° ESE 04:58:06 60° ESE 05:03:44 10° NNE
Cosmos 2333 Rocket 3.0 05:01:08 43° SSE 05:01:08 43° SSE 05:04:54 10° SSE
Cosmos 540 Rocket 4.3 05:00:07 45° ENE 05:00:20 45° ENE 05:05:14 10° SE
COSMO-SKYMED 1 4.2 04:58:36 10° SE 05:02:24 31° ENE 05:02:54 30° ENE
Tsikada Rocket 4.3 05:06:03 10° N 05:12:26 66° E 05:18:42 10° SSE
OAO 2 Rocket 4.2 05:19:29 37° SSE 05:19:29 37° SSE 05:23:48 10° ESE
USA 234 4.2 05:15:39 10° E 05:21:41 40° NNE 05:24:29 27° NNW
ISS -0.5 05:23:15 16° NE 05:23:15 16° NE 05:24:24 10° ENE
Cosmos 1818 4.5 05:24:42 35° N 05:24:42 35° N 05:28:10 10° NNE
Cosmos 2219 Rocket 3.6 05:26:01 24° SSW 05:26:01 24° SSW 05:28:22 10° S
Meteor 2-17 Rocket 4.2 05:21:04 10° S 05:27:06 80° W 05:33:11 10° N
Ariane Rocket 4.3 05:26:53 10° NNE 05:31:40 39° E 05:36:25 10° SSE
Cosmos 1725 Rocket 3.9 05:35:14 10° SSW 05:41:26 68° W 05:47:43 10° N
Cosmos 1864 Rocket 4.3 05:36:22 10° SSW 05:42:28 68° W 05:48:36 10° N
Cosmos 2237 Rocket 2.4 05:49:37 46° W 05:49:53 46° WSW 05:55:17 10° S
SKYMED 2 3.4 05:46:02 10° S 05:50:22 78° WSW 05:51:33 48° NNW
SL-16 R/B 2.2 05:48:45 22° NNW 05:52:32 80° ENE 05:58:12 10° SSE
BREEZE-M DEB (TANK) 4.3 05:55:26 34° WSW 05:55:37 34° WSW 05:58:50 10° S
Cosmos 1340 Rocket 4.5 05:55:43 10° N 05:59:18 33° ENE 06:02:54 10° SE
NOAA 6 4.1 05:54:17 10° N 05:59:20 54° WNW 06:04:22 10° SSW
Cosmos 2297 Rocket 2.3 05:59:57 29° WSW 06:02:35 49° WNW 06:08:05 10° NNE
Cosmos 968 Rocket 3.5 06:02:14 10° SSW 06:07:29 86° ESE 06:12:47 10° NNE
CZ-2C R/B 3.8 06:09:13 10° NNE 06:13:29 37° E 06:17:42 10° SSE
Meteor 1-16 Rocket 4.1 06:08:38 10° S 06:14:06 86° E 06:19:29 10° N
SL-14 R/B 3.4 06:10:52 10° N 06:14:56 81° E 06:19:00 10° S
Cosmos 2227 Rocket 2.9 06:14:08 29° WNW 06:14:59 30° WNW 06:19:57 10° N
Cosmos 1271 Rocket 3.2 06:11:24 10° S 06:15:12 62° E 06:18:59 10° NNE
CZ-4 R/B 2.6 06:15:26 10° NNE 06:19:19 44° E 06:23:14 10° S
USA 229 DEB 3.9 06:16:20 19° NW 06:21:27 58° WSW 06:28:30 10° SSE
USA 229 3.9 06:16:24 19° NW 06:21:33 59° WSW 06:28:37 10° SSE
Cosmos 2221 3.1 06:18:40 10° S 06:22:57 60° E 06:27:14 10° NNE
Meteor 1-28 Rocket 3.4 06:19:32 10° S 06:23:10 47° W 06:25:24 21° NNW
Cosmos 1743 Rocket 4.3 06:28:19 22° NW 06:30:08 30° W 06:33:58 10° SSW
Aureole 2 Rocket 3.6 06:28:33 25° WNW 06:30:08 33° WSW 06:33:55 10° SSW
Coronas F rocket 4.4 06:31:00 10° NE 06:32:02 12° ENE 06:33:04 10° E
CZ-3 Stage 3 3.8 06:28:46 11° WSW 06:32:54 35° S 06:48:39 10° ESE
IDEFIX/ARIANE 42P 3.2 06:28:02 10° NNE 06:33:16 62° E 06:38:29 10° S
Cosmos 2233 Rocket 4.3 06:27:32 10° SSW 06:33:25 43° WNW 06:39:23 10° N
Cosmos 1777 Rocket 4.1 06:29:02 10° SSW 06:34:14 78° ESE 06:39:28 10° NNE
NOSS 3-1 (A) 4.4 06:27:43 10° NNW 06:35:17 66° NE 06:43:36 10° SE
SMAP 3.8 06:32:24 10° NNE 06:37:00 57° E 06:41:34 10° S
Meteor 1-4 Rocket 3.3 06:34:16 10° SW 06:37:37 32° WNW 06:41:03 10° N
COSMO-SKYMED 1 3.7 06:35:09 10° SSW 06:38:34 23° W 06:40:07 19° WNW
Cosmos 1842 Rocket 4.2 06:35:27 10° SW 06:39:19 31° WNW 06:43:14 10° NNW
Cosmos 2333 Rocket 4.0 06:43:13 12° WSW 06:43:13 12° WSW 06:44:30 10° WSW
ATLAS 2AS CENTAUR R/B 4.4 06:36:39 10° NNW 06:43:41 31° NE 06:50:22 10° E
Cosmos 1184 Rocket 4.2 06:43:12 10° N 06:46:22 41° ENE 06:49:30 10° SSE
Cosmos 1626 2.8 06:43:38 10° N 06:47:20 58° E 06:51:01 10° SSE
Cosmos 2034 Rocket 4.1 06:42:19 10° S 06:48:30 84° E 06:54:46 10° N
Cosmos 2058 3.0 06:46:06 10° NNW 06:50:06 51° W 06:54:06 10° S
Cosmos 1805 Rocket 3.6 06:45:41 10° N 06:50:08 88° E 06:54:32 10° S
CSL-04 Debris 4.3 06:49:22 10° N 06:54:42 52° WNW 06:59:57 10° SW
Cosmos 1603 3.7 06:50:33 10° NNW 06:56:13 85° WSW 07:01:51 10° SSE
Cosmos 1538 Rocket 4.4 06:52:00 10° NNW 06:57:09 47° WSW 07:02:14 10° S
ISS -3.3 06:55:55 14° WNW 06:58:34 70° SW 07:01:48 10° SE
CORIOLIS 4.3 06:56:11 10° NNE 07:01:38 81° ESE 07:07:03 10° SSW
Nadezhda 4 Rocket 4.3 06:55:18 10° N 07:01:39 75° E 07:07:56 10° SSE
Cosmos 1908 4.0 06:57:58 10° S 07:01:43 56° E 07:05:29 10° NNE
Cosmos 2151 3.9 06:58:31 10° NNW 07:02:08 28° W 07:05:45 10° SSW
OAO 2 Rocket 4.3 06:59:00 10° WSW 07:03:35 39° S 07:08:11 10° ESE
Meteor 1-29 3.5 07:00:14 10° SSE 07:03:40 63° ENE 07:07:09 10° N
USA 234 3.4 06:57:51 10° SE 07:04:23 72° SW 07:10:58 10° NW
Cosmos 923 Rocket 4.0 06:59:27 10° NNW 07:04:43 88° WSW 07:09:58 10° SSE
Helios 1B rocket 2.4 07:01:39 10° SSE 07:05:45 88° WSW 07:09:53 10° NNW
ERBS 2.3 07:03:17 10° NW 07:06:44 85° NE 07:10:09 10° SE
Cosmos 2263 Rocket 3.7 07:02:03 10° S 07:07:21 42° ESE 07:12:41 10° NE
Ariane Rocket 4.0 07:06:17 10° NNW 07:10:24 25° WNW 07:14:30 10° WSW
SJ-7 4.4 07:08:05 10° N 07:12:02 57° WNW 07:15:59 10° SSW
MOS 1 4.3 07:08:35 10° NNE 07:14:18 79° WNW 07:19:59 10° SSW
Cosmos 1680 Rocket 3.6 07:09:09 10° NNW 07:14:29 86° ENE 07:19:48 10° SSE
Cosmos 1356 Rocket 3.5 07:12:15 10° NNW 07:16:14 53° W 07:20:16 10° S
Cosmos 1092 Rocket 4.4 07:10:02 10° N 07:16:20 70° E 07:22:32 10° SSE
NOSS 3-1 (C) 4.2 07:10:01 10° NW 07:17:34 61° WSW 07:25:47 10° SSE
Cosmos 389 Rocket 2.6 07:14:43 10° S 07:18:22 86° E 07:22:04 10° N
Cosmos 1633 Rocket 3.0 07:14:42 10° N 07:19:05 80° W 07:23:24 10° S
Sich 1 3.0 07:15:23 10° NNW 07:19:44 68° W 07:24:01 10° S
Cosmos 1464 Rocket 4.4 07:15:00 10° SW 07:20:56 41° WNW 07:26:51 10° N
